Regional Weather Roundup
Issued by NWS Charleston, WV

Home | Current Version | Previous Version | Text Only | Print | Product List | Glossary Off
Versions: 1 2 3 4 5 6 7 8 9 10 11 12 13 14 15 16 17 18 19 20 21 22 23 24 25 26 27 28 29 30 31 32 33 34 35 36 37 38 39 40 41 42 43 44 45 46 47 48 49 50

261
ASUS41 KRLX 230610
RWRRLX
West Virginia Regional Weather Roundup
National Weather Service Charleston WV
100 AM EST FRI FEB 23 2018

Note: "fair" indicates few or no clouds below 12,000 feet with no
significant weather and/or obstructions to visibility.

WVZ003-230700-
Northern Panhandle of West Virginia

CITY           SKY/WX    TMP DP  RH WIND       PRES   REMARKS
WHEELING       CLOUDY    41  40  96 E5        30.41S FOG
$$

WVZ009-230700-
Northwest West Virginia

CITY           SKY/WX    TMP DP  RH WIND       PRES   REMARKS
PARKERSBURG    CLOUDY    44  43  96 E6        30.41F FOG
$$

WVZ006-230700-
Western West Virginia

CITY           SKY/WX    TMP DP  RH WIND       PRES   REMARKS
HUNTINGTON     FOG       48  46  93 CALM      30.37F VSB 1
$$

WVZ015-230700-
West Central West Virginia

CITY           SKY/WX    TMP DP  RH WIND       PRES   REMARKS
CHARLESTON     LGT RAIN  50  50 100 CALM      30.38R
$$

WVZ022-031-230700-
North Central West Virginia

CITY           SKY/WX    TMP DP  RH WIND       PRES   REMARKS
CLARKSBURG     LGT RAIN  44  42  93 CALM      30.41R FOG
MORGANTOWN     CLOUDY    45  41  86 SE6       30.41F
$$

WVZ025-035-042-045-230700-
Southern West Virginia

CITY           SKY/WX    TMP DP  RH WIND       PRES   REMARKS
BECKLEY        MOCLDY    60  55  83 S9        30.40F
LOGAN          CLOUDY    57  57 100 CALM      30.37S
BLUEFIELD      FAIR      60  55  83 SE5       30.42F
LEWISBURG      CLOUDY    56  55  94 CALM      30.43F
$$

WVZ047-230700-
Northern Mountains of West Virginia

CITY           SKY/WX    TMP DP  RH WIND       PRES   REMARKS
ELKINS         LGT RAIN  53  52  96 CALM      30.41S FOG
$$

WVZ052-230700-
Eastern Panhandle of West Virginia

CITY           SKY/WX    TMP DP  RH WIND       PRES   REMARKS
MARTINSBURG    CLOUDY    40  39  97 NE3       30.57F FOG
PETERSBURG     CLOUDY    40  39  98 CALM      30.53F FOG
$$




USA.gov is the U.S. government's official web portal to all federal, state and local government web resources and services.